MAUNA LOA HI US current weather conditions

sailwx.info

Wind from 334 at 6 knots gusting 13

Air temperature 11.7° C
Dewpoint 6.4° C

Last reported at 2018-Apr-23 10:34 UTC.
Time now 2018-Apr-23 11:52 UTC

Location: N 19°28' W 155°22'.
View on Google Maps.

See reports from other nearby stations

  
Tides and Currents Weather Stations Pressure Air Temp Water Temp Dewpoint Dewpoint Depression Visibility Wind Speed Wind Dir Waves Ship Positions
date/time (UTC)wind fromknots sea level pressurealtimeterstation pressurevisibilityair tempwater tempwave heightnotes
2018-Apr-23 10:34 334 6 gusting 13 11.7
2018-Apr-23 09:34 315 5 gusting 9 10.6
2018-Apr-23 08:34 337 3 gusting 10 10.6
2018-Apr-23 07:34 348 5 gusting 14 12.2
2018-Apr-23 06:34 321 5 gusting 16 12.8
2018-Apr-23 05:34 301 1 gusting 11 11.7
2018-Apr-23 04:34 335 6 gusting 19 14.4
2018-Apr-23 03:34 013 7 gusting 15 15.0
2018-Apr-23 02:34 176 5 gusting 13 17.2
2018-Apr-23 01:34 007 7 gusting 16 21.7
2018-Apr-23 00:34 018 8 gusting 14 21.7
2018-Apr-22 23:34 018 6 gusting 12 21.7
2018-Apr-22 22:34 018 6 gusting 13 20.0
2018-Apr-22 21:34 016 7 gusting 13 20.0
2018-Apr-22 20:34 029 6 gusting 14 22.2
2018-Apr-22 19:34 015 6 gusting 13 20.6
2018-Apr-22 18:34 005 7 gusting 13 18.9
2018-Apr-22 17:34 317 4 gusting 9 15.6
2018-Apr-22 16:34 309 5 gusting 9 11.1
2018-Apr-22 15:34 314 5 gusting 10 9.4
2018-Apr-22 14:34 320 5 gusting 12 11.1
2018-Apr-22 13:34 326 6 gusting 12 12.2
2018-Apr-22 12:34 349 4 gusting 9 12.8
2018-Apr-22 11:34 325 5 gusting 7 10.0
2018-Apr-22 10:34 308 5 gusting 10 10.6
2018-Apr-22 09:34 329 4 gusting 9 11.7
2018-Apr-22 08:34 359 4 gusting 10 11.7
2018-Apr-22 07:34 322 5 gusting 10 12.2
2018-Apr-22 06:34 356 4 gusting 12 12.2
2018-Apr-22 05:34 001 6 gusting 9 12.8
2018-Apr-22 04:34 351 5 gusting 12 12.8
2018-Apr-22 03:34 015 5 gusting 11 14.4
2018-Apr-22 02:34 025 6 gusting 13 16.7
2018-Apr-22 01:34 026 6 gusting 13 17.2
2018-Apr-22 00:34 013 5 gusting 15 18.9
2018-Apr-21 23:34 026 8 gusting 16 18.9
2018-Apr-21 22:34 038 4 gusting 12 19.4
2018-Apr-21 21:34 020 6 gusting 14 20.0
2018-Apr-21 20:34 012 6 gusting 15 19.4
2018-Apr-21 19:34 359 6 gusting 11 17.8
2018-Apr-21 18:34 003 4 gusting 12 16.1
2018-Apr-21 17:34 335 5 gusting 10 14.4
2018-Apr-21 16:34 337 4 gusting 8 12.2
2018-Apr-21 15:34 313 5 gusting 8 9.4
2018-Apr-21 14:34 319 4 gusting 13 8.9
2018-Apr-21 13:34 355 5 gusting 11 10.6
2018-Apr-21 12:34 322 2 gusting 3 7.8
2018-Apr-21 11:34 245 2 gusting 10 10.6